QPF
0.01 0.00 0.00 0.00 0.00 0.00 0.01 0.02 0.01 0.01 0.01 0.00 0.00 0.01 0.01 0.01 0.00 0.01 0.01 0.01 0.01 0.01 0.00 0.00 0.01 0.00 0.01 0.01 0.00 0.00 0.00 0.00 0.01 0.00 0.00 0.00 0.00 0.00 0.00 0.01 0.01 0.01 0.01
0.01 0.01 0.00 0.00 0.00 0.00 0.01 0.02 0.02 0.01 0.01 0.00 0.00 0.00 0.00 0.01 0.00 0.00 0.00 0.00 0.01 0.01 0.00 0.00 0.00 0.00 0.00 0.00 0.00 0.00 0.00 0.00 0.00 0.00 0.00 0.00 0.00 0.00 0.00 0.00 0.00 0.00 0.00
0.01 0.01 0.00 0.00 0.00 0.00 0.01 0.02 0.02 0.01 0.01 0.01 0.00 0.00 0.00 0.00 0.00 0.00 0.00 0.00 0.00 0.00 0.00 0.00 0.00 0.00 0.00 0.00 0.00 0.00 0.00 0.00 0.00 0.00 0.00 0.00 0.00 0.00 0.00 0.00 0.00 0.00 0.00
0.00 0.00 0.00 0.00 0.00 0.00 0.00 0.01 0.01 0.01 0.02 0.02 0.02 0.01 0.00 0.01 0.01 0.01 0.01 0.00 0.00 0.00 0.00 0.00 0.00 0.00 0.00 0.00 0.00 0.00 0.00 0.01 0.01 0.00 0.00 0.00 0.00 0.00 0.00 0.00 0.00 0.00 0.00
0.00 0.00 0.00 0.00 0.00 0.01 0.01 0.01 0.01 0.01 0.02 0.02 0.02 0.01 0.01 0.01 0.01 0.00 0.00 0.00 0.00 0.00 0.00 0.00 0.00 0.00 0.00 0.00 0.00 0.01 0.01 0.01 0.00 0.00 0.00 0.00 0.00 0.00 0.00 0.00 0.00 0.00 0.00
0.00 0.00 0.01 0.01 0.01 0.01 0.01 0.01 0.01 0.01 0.02 0.02 0.02 0.01 0.01 0.01 0.01 0.01 0.01 0.00 0.00 0.00 0.00 0.00 0.00 0.00 0.00 0.00 0.00 0.00 0.00 0.00 0.01 0.00 0.00 0.00 0.00 0.00 0.00 0.00 0.00 0.00 0.00
0.00 0.01 0.01 0.01 0.01 0.01 0.01 0.01 0.01 0.01 0.00 0.01 0.01 0.01 0.01 0.01 0.01 0.01 0.01 0.00 0.00 0.00 0.00 0.00 0.00 0.00 0.00 0.00 0.00 0.00 0.00 0.00 0.00 0.00 0.00 0.00 0.00 0.00 0.01 0.00 0.00 0.00 0.00
0.01 0.02 0.02 0.01 0.01 0.00 0.00 0.01 0.01 0.00 0.00 0.00 0.00 0.00 0.00 0.01 0.01 0.01 0.00 0.00 0.00 0.00 0.00 0.00 0.00 0.00 0.00 0.00 0.00 0.00 0.00 0.00 0.00 0.00 0.00 0.00 0.00 0.00 0.00 0.00 0.00 0.00 0.00
0.01 0.02 0.01 0.01 0.01 0.01 0.01 0.00 0.01 0.01 0.00 0.00 0.00 0.00 0.00 0.00 0.00 0.01 0.00 0.00 0.00 0.00 0.00 0.00 0.00 0.00 0.00 0.00 0.00 0.00 0.00 0.00 0.01 0.00 0.00 0.00 0.00 0.00 0.00 0.00 0.00 0.00 0.00
0.01 0.01 0.01 0.01 0.01 0.01 0.01 0.00 0.00 0.00 0.00 0.00 0.00 0.00 0.00 0.00 0.00 0.01 0.00 0.00 0.00 0.00 0.00 0.00 0.00 0.00 0.00 0.00 0.00 0.00 0.00 0.00 0.00 0.00 0.00 0.00 0.00 0.00 0.00 0.00 0.00 0.00 0.00
0.01 0.01 0.01 0.01 0.01 0.02 0.01 0.01 0.00 0.00 0.00 0.00 0.00 0.00 0.00 0.01 0.01 0.01 0.01 0.00 0.00 0.00 0.00 0.00 0.00 0.00 0.00 0.01 0.00 0.00 0.00 0.00 0.00 0.00 0.00 0.00 0.00 0.00 0.00 0.00 0.00 0.00 0.00
0.01 0.01 0.01 0.01 0.01 0.01 0.01 0.01 0.00 0.00 0.00 0.01 0.01 0.01 0.01 0.01 0.01 0.00 0.01 0.00 0.00 0.00 0.00 0.00 0.00 0.00 0.00 0.01 0.01 0.00 0.00 0.00 0.00 0.00 0.00 0.00 0.00 0.00 0.00 0.00 0.00 0.00 0.00
0.02 0.01 0.01 0.00 0.00 0.01 0.01 0.01 0.00 0.00 0.00 0.01 0.01 0.00 0.00 0.00 0.00 0.00 0.00 0.00 0.01 0.00 0.00 0.00 0.00 0.01 0.01 0.01 0.00 0.00 0.00 0.00 0.00 0.00 0.00 0.00 0.00 0.00 0.00 0.00 0.00 0.00 0.00
0.02 0.02 0.01 0.01 0.00 0.00 0.00 0.00 0.00 0.00 0.00 0.00 0.00 0.01 0.01 0.00 0.00 0.00 0.01 0.01 0.01 0.01 0.01 0.01 0.01 0.01 0.01 0.00 0.00 0.00 0.00 0.01 0.00 0.00 0.00 0.00 0.00 0.00 0.00 0.00 0.00 0.01 0.01
0.01 0.01 0.01 0.01 0.01 0.01 0.00 0.00 0.00 0.00 0.00 0.00 0.00 0.00 0.00 0.00 0.01 0.02 0.02 0.03 0.03 0.03 0.02 0.01 0.01 0.01 0.01 0.01 0.01 0.01 0.01 0.01 0.01 0.00 0.00 0.01 0.01 0.01 0.01 0.01 0.01 0.01 0.01
0.00 0.00 0.00 0.00 0.01 0.01 0.01 0.01 0.01 0.01 0.01 0.01 0.01 0.00 0.01 0.01 0.01 0.02 0.02 0.02 0.03 0.02 0.01 0.01 0.00 0.00 0.00 0.01 0.02 0.02 0.02 0.01 0.00 0.00 0.01 0.01 0.01 0.01 0.01 0.01 0.01 0.01 0.01
0.00 0.00 0.00 0.00 0.00 0.00 0.00 0.00 0.00 0.01 0.01 0.01 0.01 0.01 0.01 0.01 0.01 0.01 0.01 0.01 0.02 0.02 0.01 0.01 0.00 0.01 0.01 0.02 0.03 0.02 0.01 0.01 0.01 0.01 0.01 0.01 0.01 0.01 0.01 0.02 0.01 0.01 0.01
0.00 0.00 0.00 0.00 0.01 0.01 0.00 0.01 0.01 0.01 0.01 0.01 0.01 0.01 0.01 0.01 0.01 0.02 0.01 0.01 0.00 0.01 0.01 0.01 0.01 0.01 0.01 0.02 0.02 0.02 0.02 0.02 0.02 0.02 0.02 0.02 0.01 0.01 0.01 0.01 0.01 0.02 0.01
0.00 0.00 0.00 0.00 0.01 0.01 0.01 0.01 0.01 0.01 0.01 0.01 0.01 0.01 0.01 0.01 0.01 0.02 0.02 0.01 0.00 0.01 0.01 0.01 0.01 0.01 0.01 0.01 0.02 0.02 0.02 0.02 0.02 0.02 0.02 0.02 0.02 0.02 0.01 0.01 0.01 0.02 0.02
0.00 0.00 0.00 0.00 0.00 0.01 0.01 0.01 0.01 0.01 0.01 0.01 0.01 0.01 0.01 0.01 0.01 0.02 0.02 0.02 0.02 0.01 0.01 0.01 0.01 0.01 0.01 0.02 0.02 0.02 0.02 0.02 0.02 0.02 0.03 0.03 0.03 0.02 0.02 0.02 0.01 0.01 0.02
0.00 0.00 0.01 0.01 0.01 0.01 0.01 0.01 0.01 0.01 0.01 0.01 0.01 0.01 0.01 0.01 0.01 0.01 0.02 0.02 0.02 0.02 0.01 0.01 0.01 0.02 0.02 0.02 0.03 0.03 0.03 0.03 0.03 0.03 0.03 0.03 0.03 0.03 0.02 0.02 0.01 0.02 0.02
0.01 0.01 0.01 0.01 0.01 0.01 0.01 0.01 0.01 0.01 0.01 0.01 0.01 0.01 0.01 0.00 0.00 0.01 0.02 0.02 0.01 0.01 0.01 0.01 0.01 0.02 0.02 0.02 0.03 0.03 0.03 0.03 0.02 0.02 0.02 0.02 0.02 0.02 0.02 0.02 0.02 0.02 0.02
0.01 0.01 0.01 0.01 0.01 0.00 0.00 0.00 0.00 0.01 0.01 0.01 0.01 0.01 0.01 0.00 0.00 0.00 0.01 0.01 0.02 0.02 0.01 0.01 0.02 0.02 0.02 0.02 0.02 0.02 0.02 0.02 0.02 0.01 0.02 0.02 0.02 0.02 0.02 0.02 0.03 0.03 0.03
0.01 0.01 0.01 0.01 0.01 0.00 0.00 0.00 0.00 0.00 0.00 0.00 0.00 0.01 0.01 0.01 0.01 0.01 0.01 0.01 0.01 0.02 0.02 0.02 0.02 0.02 0.02 0.02 0.01 0.01 0.01 0.01 0.01 0.02 0.02 0.02 0.02 0.02 0.02 0.02 0.02 0.02 0.02
0.00 0.00 0.00 0.00 0.00 0.00 0.00 0.00 0.01 0.00 0.00 0.00 0.00 0.00 0.00 0.01 0.01 0.01 0.01 0.01 0.01 0.01 0.02 0.02 0.01 0.01 0.01 0.01 0.01 0.01 0.01 0.01 0.02 0.02 0.02 0.02 0.02 0.03 0.02 0.02 0.02 0.01 0.01
0.00 0.00 0.00 0.00 0.00 0.00 0.00 0.00 0.01 0.01 0.01 0.00 0.00 0.00 0.01 0.01 0.01 0.01 0.01 0.02 0.02 0.01 0.01 0.01 0.01 0.01 0.01 0.01 0.01 0.01 0.01 0.01 0.02 0.02 0.03 0.03 0.03 0.03 0.03 0.02 0.02 0.02 0.02
MSLP
1018.19 1018.73 1019.26 1019.73 1020.14 1020.47 1020.73 1020.94 1021.13 1021.33 1021.56 1021.83 1022.13 1022.46 1022.78 1023.09 1023.36 1023.58 1023.75 1023.86 1023.92 1023.95 1023.94 1023.92 1023.87 1023.82 1023.77 1023.72 1023.70 1023.71 1023.76 1023.85 1023.99 1024.15 1024.33 1024.50 1024.64 1024.73 1024.76 1024.73 1024.63 1024.48 1024.28
1018.08 1018.64 1019.18 1019.68 1020.12 1020.47 1020.77 1021.03 1021.27 1021.53 1021.81 1022.12 1022.47 1022.83 1023.19 1023.53 1023.83 1024.07 1024.26 1024.39 1024.47 1024.51 1024.51 1024.48 1024.43 1024.36 1024.29 1024.22 1024.17 1024.15 1024.16 1024.21 1024.29 1024.40 1024.52 1024.62 1024.70 1024.72 1024.68 1024.57 1024.41 1024.21 1023.97
1017.90 1018.50 1019.08 1019.61 1020.08 1020.48 1020.84 1021.16 1021.46 1021.78 1022.12 1022.48 1022.86 1023.25 1023.63 1023.98 1024.28 1024.53 1024.73 1024.86 1024.95 1024.99 1025.00 1024.98 1024.94 1024.89 1024.83 1024.77 1024.72 1024.68 1024.68 1024.69 1024.73 1024.78 1024.83 1024.86 1024.85 1024.78 1024.66 1024.47 1024.23 1023.96 1023.67
1017.65 1018.30 1018.93 1019.51 1020.04 1020.50 1020.92 1021.31 1021.70 1022.08 1022.48 1022.89 1023.30 1023.71 1024.09 1024.42 1024.71 1024.95 1025.12 1025.25 1025.33 1025.39 1025.41 1025.42 1025.41 1025.39 1025.36 1025.33 1025.30 1025.27 1025.26 1025.25 1025.25 1025.24 1025.22 1025.17 1025.07 1024.91 1024.70 1024.43 1024.11 1023.77 1023.42
1017.34 1018.06 1018.75 1019.39 1019.98 1020.52 1021.01 1021.48 1021.94 1022.39 1022.84 1023.29 1023.73 1024.14 1024.51 1024.82 1025.09 1025.29 1025.44 1025.56 1025.64 1025.70 1025.75 1025.79 1025.82 1025.84 1025.86 1025.87 1025.86 1025.85 1025.83 1025.80 1025.77 1025.71 1025.62 1025.49 1025.31 1025.07 1024.78 1024.44 1024.06 1023.66 1023.25
1016.98 1017.78 1018.54 1019.25 1019.91 1020.52 1021.08 1021.63 1022.15 1022.66 1023.16 1023.64 1024.09 1024.50 1024.85 1025.14 1025.37 1025.55 1025.68 1025.78 1025.86 1025.94 1026.02 1026.10 1026.17 1026.25 1026.30 1026.35 1026.37 1026.36 1026.33 1026.28 1026.20 1026.09 1025.94 1025.75 1025.50 1025.21 1024.87 1024.48 1024.06 1023.63 1023.19
1016.60 1017.48 1018.31 1019.09 1019.81 1020.49 1021.12 1021.72 1022.29 1022.85 1023.38 1023.88 1024.33 1024.73 1025.07 1025.34 1025.54 1025.70 1025.83 1025.93 1026.03 1026.13 1026.24 1026.36 1026.48 1026.59 1026.68 1026.74 1026.77 1026.76 1026.71 1026.62 1026.50 1026.34 1026.14 1025.90 1025.61 1025.29 1024.92 1024.53 1024.10 1023.66 1023.21
1016.24 1017.19 1018.09 1018.93 1019.71 1020.43 1021.10 1021.74 1022.35 1022.93 1023.48 1023.98 1024.43 1024.82 1025.15 1025.41 1025.61 1025.77 1025.90 1026.02 1026.14 1026.28 1026.43 1026.58 1026.74 1026.87 1026.98 1027.04 1027.06 1027.02 1026.94 1026.81 1026.63 1026.43 1026.19 1025.92 1025.62 1025.29 1024.94 1024.55 1024.15 1023.73 1023.31
1015.91 1016.93 1017.89 1018.78 1019.59 1020.34 1021.04 1021.70 1022.32 1022.91 1023.46 1023.96 1024.41 1024.79 1025.11 1025.37 1025.58 1025.76 1025.92 1026.07 1026.24 1026.41 1026.60 1026.78 1026.96 1027.10 1027.20 1027.25 1027.23 1027.16 1027.02 1026.84 1026.62 1026.38 1026.11 1025.83 1025.53 1025.22 1024.90 1024.57 1024.21 1023.84 1023.45
1015.64 1016.71 1017.72 1018.64 1019.48 1020.25 1020.96 1021.62 1022.24 1022.83 1023.37 1023.86 1024.30 1024.68 1025.01 1025.28 1025.52 1025.73 1025.92 1026.12 1026.33 1026.54 1026.76 1026.96 1027.14 1027.28 1027.36 1027.37 1027.31 1027.18 1027.00 1026.77 1026.51 1026.23 1025.95 1025.67 1025.40 1025.12 1024.85 1024.57 1024.28 1023.96 1023.62
1015.41 1016.53 1017.57 1018.52 1019.38 1020.17 1020.88 1021.54 1022.15 1022.72 1023.25 1023.73 1024.16 1024.55 1024.89 1025.19 1025.45 1025.70 1025.94 1026.18 1026.43 1026.67 1026.91 1027.12 1027.29 1027.40 1027.45 1027.42 1027.31 1027.13 1026.90 1026.63 1026.34 1026.05 1025.77 1025.50 1025.26 1025.03 1024.80 1024.58 1024.34 1024.08 1023.78
1015.22 1016.37 1017.44 1018.41 1019.29 1020.09 1020.80 1021.46 1022.06 1022.62 1023.14 1023.62 1024.05 1024.45 1024.80 1025.13 1025.43 1025.71 1025.99 1026.26 1026.53 1026.79 1027.02 1027.22 1027.37 1027.45 1027.46 1027.38 1027.24 1027.02 1026.76 1026.47 1026.17 1025.88 1025.61 1025.37 1025.16 1024.97 1024.79 1024.61 1024.41 1024.18 1023.91
1015.02 1016.20 1017.29 1018.29 1019.19 1020.00 1020.72 1021.38 1021.99 1022.55 1023.07 1023.55 1023.99 1024.39 1024.77 1025.11 1025.44 1025.75 1026.04 1026.33 1026.61 1026.86 1027.08 1027.25 1027.37 1027.41 1027.38 1027.27 1027.10 1026.87 1026.60 1026.31 1026.03 1025.76 1025.52 1025.31 1025.12 1024.96 1024.81 1024.65 1024.47 1024.25 1023.99
1014.80 1015.99 1017.10 1018.12 1019.04 1019.87 1020.61 1021.29 1021.91 1022.48 1023.01 1023.50 1023.95 1024.38 1024.77 1025.13 1025.47 1025.79 1026.09 1026.37 1026.63 1026.86 1027.05 1027.19 1027.26 1027.27 1027.21 1027.09 1026.90 1026.68 1026.43 1026.17 1025.92 1025.69 1025.49 1025.31 1025.16 1025.01 1024.87 1024.71 1024.52 1024.29 1024.00
1014.52 1015.72 1016.84 1017.88 1018.82 1019.67 1020.44 1021.14 1021.78 1022.38 1022.93 1023.44 1023.91 1024.35 1024.75 1025.13 1025.48 1025.79 1026.09 1026.35 1026.58 1026.77 1026.92 1027.01 1027.05 1027.03 1026.96 1026.83 1026.67 1026.48 1026.27 1026.06 1025.86 1025.68 1025.52 1025.38 1025.24 1025.10 1024.95 1024.77 1024.55 1024.27 1023.95
1014.18 1015.37 1016.49 1017.53 1018.49 1019.36 1020.16 1020.89 1021.56 1022.18 1022.76 1023.30 1023.80 1024.26 1024.68 1025.06 1025.41 1025.72 1025.99 1026.23 1026.43 1026.58 1026.69 1026.75 1026.76 1026.73 1026.65 1026.55 1026.42 1026.28 1026.13 1025.99 1025.85 1025.73 1025.61 1025.49 1025.37 1025.22 1025.04 1024.81 1024.54 1024.21 1023.83
1013.79 1014.95 1016.06 1017.10 1018.06 1018.94 1019.76 1020.51 1021.21 1021.87 1022.48 1023.04 1023.57 1024.05 1024.49 1024.89 1025.24 1025.55 1025.81 1026.02 1026.19 1026.32 1026.40 1026.44 1026.44 1026.41 1026.36 1026.29 1026.20 1026.12 1026.04 1025.96 1025.89 1025.82 1025.73 1025.63 1025.50 1025.33 1025.11 1024.83 1024.50 1024.11 1023.66
1013.36 1014.48 1015.56 1016.57 1017.53 1018.42 1019.24 1020.02 1020.74 1021.42 1022.06 1022.66 1023.21 1023.72 1024.19 1024.60 1024.97 1025.28 1025.54 1025.75 1025.91 1026.03 1026.10 1026.14 1026.16 1026.15 1026.13 1026.10 1026.07 1026.05 1026.03 1026.01 1025.98 1025.95 1025.88 1025.78 1025.63 1025.42 1025.15 1024.82 1024.42 1023.96 1023.45
1012.93 1014.00 1015.03 1016.01 1016.94 1017.82 1018.64 1019.42 1020.16 1020.87 1021.53 1022.16 1022.75 1023.29 1023.78 1024.23 1024.62 1024.95 1025.24 1025.46 1025.64 1025.77 1025.87 1025.93 1025.98 1026.00 1026.03 1026.05 1026.07 1026.09 1026.12 1026.13 1026.14 1026.11 1026.04 1025.91 1025.73 1025.48 1025.15 1024.76 1024.30 1023.78 1023.21
1012.53 1013.53 1014.51 1015.45 1016.34 1017.20 1018.01 1018.79 1019.54 1020.26 1020.94 1021.60 1022.22 1022.79 1023.33 1023.81 1024.24 1024.62 1024.94 1025.21 1025.42 1025.60 1025.74 1025.85 1025.94 1026.01 1026.08 1026.14 1026.20 1026.26 1026.31 1026.33 1026.33 1026.29 1026.19 1026.03 1025.79 1025.48 1025.10 1024.64 1024.13 1023.56 1022.94
1012.18 1013.12 1014.04 1014.93 1015.79 1016.61 1017.41 1018.18 1018.93 1019.66 1020.36 1021.04 1021.69 1022.30 1022.88 1023.41 1023.89 1024.32 1024.70 1025.03 1025.30 1025.54 1025.74 1025.91 1026.05 1026.17 1026.28 1026.38 1026.46 1026.52 1026.57 1026.57 1026.54 1026.46 1026.31 1026.09 1025.79 1025.42 1024.98 1024.47 1023.91 1023.30 1022.65
1011.90 1012.78 1013.64 1014.49 1015.31 1016.11 1016.89 1017.65 1018.40 1019.14 1019.85 1020.56 1021.23 1021.88 1022.50 1023.08 1023.62 1024.11 1024.55 1024.94 1025.29 1025.60 1025.86 1026.09 1026.29 1026.45 1026.59 1026.70 1026.78 1026.83 1026.84 1026.81 1026.72 1026.58 1026.36 1026.07 1025.71 1025.28 1024.78 1024.23 1023.63 1023.00 1022.34
1011.70 1012.53 1013.35 1014.15 1014.94 1015.72 1016.48 1017.24 1017.99 1018.73 1019.47 1020.19 1020.90 1021.58 1022.24 1022.86 1023.45 1024.00 1024.50 1024.96 1025.38 1025.74 1026.07 1026.35 1026.58 1026.78 1026.93 1027.04 1027.10 1027.12 1027.08 1026.98 1026.83 1026.61 1026.32 1025.96 1025.54 1025.05 1024.51 1023.93 1023.31 1022.66 1022.00
1011.57 1012.36 1013.14 1013.92 1014.68 1015.44 1016.20 1016.95 1017.71 1018.47 1019.22 1019.96 1020.70 1021.41 1022.11 1022.77 1023.40 1024.00 1024.55 1025.06 1025.52 1025.94 1026.30 1026.61 1026.87 1027.08 1027.23 1027.31 1027.34 1027.31 1027.21 1027.05 1026.82 1026.52 1026.17 1025.75 1025.27 1024.75 1024.18 1023.58 1022.96 1022.32 1021.68
1011.51 1012.27 1013.02 1013.76 1014.51 1015.27 1016.02 1016.79 1017.56 1018.33 1019.10 1019.87 1020.63 1021.38 1022.10 1022.79 1023.46 1024.08 1024.67 1025.21 1025.70 1026.13 1026.52 1026.84 1027.10 1027.29 1027.42 1027.47 1027.46 1027.37 1027.21 1026.98 1026.68 1026.32 1025.91 1025.44 1024.93 1024.39 1023.82 1023.22 1022.62 1022.00 1021.39
1011.49 1012.22 1012.95 1013.68 1014.42 1015.17 1015.93 1016.71 1017.50 1018.30 1019.10 1019.89 1020.68 1021.45 1022.20 1022.91 1023.59 1024.24 1024.83 1025.38 1025.88 1026.31 1026.69 1027.00 1027.24 1027.40 1027.49 1027.50 1027.43 1027.29 1027.07 1026.78 1026.44 1026.03 1025.58 1025.09 1024.56 1024.02 1023.46 1022.89 1022.32 1021.74 1021.18
Thickness
5700 5698 5696 5694 5693 5692 5690 5689 5688 5687 5686 5685 5684 5683 5682 5680 5678 5676 5676 5675 5675 5674 5674 5673 5671 5670 5669 5668 5668 5667 5666 5666 5661 5660 5659 5657 5654 5652 5650 5649 5648 5646 5645
5699 5697 5695 5693 5691 5691 5690 5689 5688 5686 5685 5685 5683 5681 5680 5679 5678 5676 5674 5673 5672 5671 5671 5670 5669 5667 5665 5665 5664 5663 5662 5661 5659 5655 5655 5653 5651 5649 5647 5645 5644 5643 5640
5699 5696 5694 5693 5692 5690 5689 5688 5687 5686 5685 5683 5682 5680 5678 5677 5676 5675 5673 5672 5671 5670 5669 5668 5667 5666 5664 5662 5660 5660 5659 5657 5655 5654 5652 5649 5648 5646 5643 5642 5641 5638 5636
5698 5695 5694 5693 5691 5690 5689 5687 5686 5685 5684 5682 5681 5679 5677 5676 5675 5673 5672 5671 5670 5668 5667 5666 5665 5664 5662 5660 5658 5657 5655 5653 5651 5650 5648 5646 5644 5642 5640 5638 5637 5634 5633
5698 5695 5693 5693 5690 5688 5687 5685 5684 5682 5681 5681 5679 5677 5675 5673 5673 5671 5670 5668 5668 5666 5665 5663 5661 5659 5657 5656 5655 5654 5652 5650 5648 5646 5644 5643 5641 5637 5636 5635 5632 5630 5628
5698 5695 5693 5691 5688 5686 5685 5684 5682 5680 5679 5678 5676 5675 5673 5671 5668 5665 5666 5666 5666 5664 5662 5660 5658 5656 5653 5650 5648 5647 5646 5646 5645 5643 5641 5639 5637 5635 5631 5629 5628 5626 5624
5698 5695 5691 5689 5686 5685 5683 5681 5679 5678 5676 5675 5674 5673 5671 5668 5664 5662 5661 5663 5663 5662 5660 5658 5656 5654 5651 5650 5646 5642 5641 5638 5637 5638 5637 5636 5633 5631 5627 5625 5622 5620 5617
5696 5693 5690 5688 5685 5683 5681 5679 5677 5677 5674 5672 5671 5670 5668 5665 5661 5659 5658 5659 5660 5658 5657 5655 5653 5652 5649 5647 5645 5643 5641 5637 5634 5633 5632 5630 5628 5625 5622 5619 5616 5613 5611
5693 5691 5689 5686 5683 5681 5678 5677 5676 5674 5672 5670 5669 5667 5665 5663 5659 5656 5654 5657 5656 5655 5653 5652 5650 5648 5643 5639 5639 5638 5636 5633 5629 5626 5623 5621 5618 5616 5613 5612 5610 5608 5607
5691 5689 5688 5685 5682 5679 5678 5676 5674 5672 5670 5668 5666 5665 5664 5662 5657 5653 5651 5653 5652 5651 5649 5647 5643 5641 5637 5634 5634 5633 5631 5629 5626 5623 5619 5616 5614 5611 5607 5606 5604 5602 5601
5689 5687 5684 5682 5680 5678 5676 5673 5671 5669 5667 5665 5664 5662 5661 5659 5654 5650 5648 5649 5648 5647 5645 5643 5641 5635 5632 5629 5627 5628 5625 5622 5620 5618 5616 5614 5611 5607 5604 5600 5597 5594 5593
5685 5682 5680 5678 5676 5674 5671 5669 5668 5666 5663 5662 5660 5659 5657 5655 5651 5647 5644 5642 5642 5641 5640 5639 5636 5630 5626 5623 5621 5619 5617 5614 5614 5612 5610 5608 5605 5601 5598 5594 5590 5586 5583
5680 5677 5676 5674 5672 5671 5668 5665 5663 5661 5660 5659 5657 5655 5654 5652 5648 5643 5640 5637 5635 5635 5635 5631 5627 5623 5620 5618 5615 5612 5610 5610 5609 5607 5605 5602 5599 5595 5590 5586 5583 5578 5574
5675 5673 5671 5670 5668 5667 5664 5662 5660 5658 5656 5654 5653 5651 5649 5647 5645 5641 5637 5633 5629 5627 5626 5623 5619 5616 5614 5612 5609 5607 5606 5605 5603 5600 5598 5595 5591 5587 5583 5579 5576 5572 5568
5671 5669 5667 5665 5664 5661 5658 5656 5655 5654 5653 5649 5648 5647 5644 5642 5639 5634 5632 5630 5627 5624 5620 5618 5615 5613 5611 5608 5606 5604 5600 5597 5594 5592 5589 5586 5583 5580 5576 5572 5568 5564 5561
5666 5664 5662 5660 5657 5655 5653 5649 5645 5645 5642 5640 5639 5638 5638 5634 5630 5627 5624 5621 5618 5615 5612 5612 5609 5607 5605 5602 5600 5596 5593 5590 5588 5584 5581 5578 5575 5572 5568 5564 5559 5556 5553
5661 5659 5656 5654 5652 5650 5648 5646 5643 5638 5634 5632 5631 5629 5628 5625 5622 5619 5616 5612 5609 5605 5605 5605 5603 5601 5598 5595 5592 5589 5586 5584 5580 5576 5573 5570 5566 5563 5559 5555 5551 5547 5544
5655 5652 5650 5648 5646 5645 5643 5641 5639 5637 5633 5630 5625 5622 5620 5617 5614 5611 5607 5604 5602 5599 5600 5598 5596 5593 5591 5587 5584 5581 5578 5575 5572 5568 5565 5561 5557 5554 5550 5546 5542 5538 5535
5646 5645 5643 5641 5639 5638 5637 5635 5633 5631 5629 5626 5622 5617 5612 5608 5605 5602 5599 5600 5599 5596 5593 5591 5588 5586 5582 5579 5576 5572 5569 5566 5562 5559 5556 5552 5548 5544 5540 5537 5533 5527 5523
5637 5634 5633 5633 5632 5631 5629 5627 5625 5623 5621 5619 5616 5612 5606 5602 5600 5597 5594 5594 5592 5590 5587 5584 5581 5578 5575 5571 5567 5563 5560 5556 5553 5550 5546 5542 5538 5534 5531 5527 5523 5519 5515
5629 5627 5624 5625 5625 5623 5621 5619 5618 5615 5613 5611 5608 5605 5599 5597 5596 5592 5589 5587 5585 5583 5580 5577 5573 5570 5567 5563 5559 5555 5552 5548 5544 5540 5537 5533 5528 5525 5521 5517 5514 5510 5505
5620 5619 5618 5617 5616 5614 5612 5611 5609 5607 5605 5602 5599 5595 5589 5589 5588 5585 5582 5580 5577 5574 5572 5569 5565 5562 5558 5555 5551 5548 5544 5540 5536 5532 5527 5523 5519 5515 5511 5508 5504 5499 5495
5611 5610 5609 5608 5606 5603 5602 5602 5600 5598 5596 5593 5590 5587 5583 5581 5579 5576 5574 5572 5569 5566 5563 5560 5557 5554 5550 5546 5543 5539 5536 5532 5528 5523 5519 5514 5510 5505 5502 5498 5494 5490 5485
5601 5601 5600 5599 5597 5595 5593 5592 5591 5589 5587 5584 5582 5579 5576 5573 5570 5568 5565 5563 5560 5557 5554 5552 5549 5545 5542 5538 5534 5530 5527 5523 5518 5514 5510 5506 5502 5497 5493 5489 5485 5481 5476
5591 5591 5590 5589 5587 5586 5584 5583 5581 5579 5577 5575 5573 5570 5568 5565 5562 5559 5557 5554 5552 5549 5546 5543 5541 5537 5533 5530 5526 5521 5518 5514 5509 5505 5501 5498 5494 5490 5485 5481 5476 5472 5468
5581 5581 5580 5579 5577 5576 5575 5573 5572 5570 5568 5566 5564 5561 5559 5556 5554 5551 5548 5546 5544 5541 5538 5536 5533 5529 5525 5521 5517 5513 5509 5505 5501 5496 5493 5490 5486 5482 5477 5473 5469 5464 5460